EZY18YZ EGPD-EGKK

Flight info

Callsign EZY18YZ
Flight time N/A
Altitude 35000
Route NAXIL P600 PTH DCT ZOFAT DCT ADZOP DCT EGTOC DCT KEPAD L151 DISIT
Aircraft A21N/M-SDE2E3FGHIRWXY/LB1

Departure

Time 2026-05-07 18:43
Airport Aberdeen International Airport (EGPD)

Arrival

Time N/A
Airport London Gatwick Airport (EGKK)
Time Latitude Longitude Altitude Speed Heading
2026-05-07 18:00 57.20030 -2.20220 253 ft 0 kts 248°
2026-05-07 18:33 57.20034 -2.20202 252 ft 4 kts 247°
2026-05-07 18:33 57.20044 -2.20156 252 ft 4 kts 253°
2026-05-07 18:34 57.20046 -2.20115 252 ft 4 kts 302°
2026-05-07 18:34 57.20042 -2.20105 252 ft 1 kts 338°
2026-05-07 18:38 57.20050 -2.20111 252 ft 3 kts 338°
2026-05-07 18:39 57.20079 -2.20132 252 ft 6 kts 339°
2026-05-07 18:39 57.20126 -2.20166 252 ft 9 kts 339°
2026-05-07 18:39 57.20191 -2.20215 252 ft 11 kts 338°
2026-05-07 18:39 57.20268 -2.20273 252 ft 13 kts 338°
2026-05-07 18:40 57.20356 -2.20339 252 ft 14 kts 338°
2026-05-07 18:40 57.20455 -2.20389 252 ft 16 kts 13°
2026-05-07 18:40 57.20531 -2.20364 252 ft 12 kts 344°
2026-05-07 18:40 57.20618 -2.20418 252 ft 14 kts 338°
2026-05-07 18:41 57.20715 -2.20491 252 ft 16 kts 338°
2026-05-07 18:41 57.20823 -2.20573 252 ft 17 kts 338°
2026-05-07 18:41 57.20939 -2.20657 252 ft 18 kts 339°
2026-05-07 18:41 57.21007 -2.20609 252 ft 7 kts 68°
2026-05-07 18:42 57.21026 -2.20514 253 ft 9 kts 70°
2026-05-07 18:42 57.21035 -2.20403 253 ft 5 kts 121°
2026-05-07 18:42 57.20997 -2.20368 253 ft 7 kts 159°
2026-05-07 18:42 57.20791 -2.20217 252 ft 70 kts 158°
2026-05-07 18:43 57.20131 -2.19731 255 ft 132 kts 158°
2026-05-07 18:43 57.19306 -2.19100 847 ft 122 kts 158°
2026-05-07 18:43 57.18527 -2.18410 1391 ft 125 kts 157°
2026-05-07 18:43 57.17775 -2.17658 1872 ft 122 kts 156°
2026-05-07 18:44 57.17052 -2.16850 2364 ft 121 kts 154°
2026-05-07 18:44 57.16240 -2.16307 2642 ft 129 kts 184°
2026-05-07 18:44 57.15485 -2.17179 2914 ft 147 kts 239°
2026-05-07 18:44 57.15422 -2.19263 3218 ft 179 kts 268°
2026-05-07 18:45 57.15300 -2.21555 3776 ft 186 kts 250°
2026-05-07 18:45 57.15006 -2.23992 4216 ft 211 kts 255°
2026-05-07 18:45 57.14763 -2.26877 4645 ft 238 kts 257°
2026-05-07 18:45 57.14231 -2.29792 5258 ft 243 kts 236°
2026-05-07 18:46 57.13524 -2.31395 5805 ft 244 kts 221°
2026-05-07 18:46 57.11515 -2.33224 6892 ft 250 kts 194°
2026-05-07 18:46 57.09781 -2.33780 7716 ft 255 kts 191°
2026-05-07 18:46 57.08018 -2.34294 8578 ft 259 kts 191°
2026-05-07 18:47 57.06233 -2.34842 9431 ft 262 kts 192°
2026-05-07 18:47 57.04426 -2.35422 10184 ft 269 kts 192°
2026-05-07 18:47 57.02516 -2.36065 10562 ft 289 kts 192°
2026-05-07 18:47 57.00482 -2.36751 11058 ft 303 kts 193°
2026-05-07 18:48 56.99100 -2.37215 11497 ft 307 kts 192°
2026-05-07 18:48 56.96981 -2.37925 12219 ft 312 kts 193°
2026-05-07 18:48 56.94801 -2.38659 12976 ft 316 kts 192°
2026-05-07 18:48 56.92649 -2.39379 13706 ft 321 kts 193°
2026-05-07 18:49 56.90444 -2.40119 14377 ft 324 kts 193°
2026-05-07 18:49 56.88214 -2.40865 15082 ft 327 kts 192°
2026-05-07 18:49 56.85972 -2.41616 15787 ft 329 kts 192°
2026-05-07 18:49 56.83715 -2.42371 16481 ft 331 kts 192°
2026-05-07 18:50 56.81439 -2.43137 17172 ft 333 kts 192°
2026-05-07 18:50 56.79150 -2.43905 17869 ft 335 kts 192°
2026-05-07 18:50 56.76842 -2.44681 18499 ft 338 kts 192°
2026-05-07 18:50 56.74521 -2.45458 19061 ft 341 kts 192°
2026-05-07 18:51 56.72179 -2.46239 19606 ft 344 kts 192°
2026-05-07 18:51 56.69816 -2.47023 20143 ft 346 kts 192°
2026-05-07 18:51 56.67439 -2.47810 20666 ft 349 kts 192°
2026-05-07 18:51 56.65040 -2.48606 21187 ft 352 kts 192°
2026-05-07 18:52 56.62620 -2.49411 21712 ft 355 kts 192°
2026-05-07 18:52 56.60186 -2.50223 22228 ft 358 kts 192°
2026-05-07 18:52 56.57725 -2.51043 22737 ft 361 kts 192°
2026-05-07 18:52 56.55248 -2.51861 23236 ft 363 kts 192°
2026-05-07 18:53 56.52751 -2.52687 23677 ft 367 kts 192°
2026-05-07 18:53 56.50232 -2.53521 24091 ft 369 kts 191°
2026-05-07 18:53 56.47702 -2.54354 24513 ft 371 kts 191°
2026-05-07 18:53 56.45155 -2.55187 24938 ft 373 kts 191°
2026-05-07 18:54 56.42593 -2.56029 25356 ft 375 kts 191°
2026-05-07 18:54 56.40024 -2.56876 25767 ft 377 kts 191°
2026-05-07 18:54 56.37435 -2.57726 26185 ft 378 kts 191°
2026-05-07 18:54 56.34844 -2.58576 26582 ft 380 kts 191°
2026-05-07 18:55 56.32233 -2.59428 26974 ft 382 kts 191°
2026-05-07 18:55 56.29613 -2.60279 27347 ft 383 kts 191°
2026-05-07 18:55 56.26979 -2.61136 27699 ft 385 kts 191°
2026-05-07 18:55 56.24333 -2.61999 28034 ft 388 kts 191°
2026-05-07 18:56 56.21675 -2.62862 28369 ft 390 kts 191°
2026-05-07 18:56 56.19000 -2.63728 28707 ft 391 kts 191°
2026-05-07 18:56 56.16310 -2.64599 29049 ft 393 kts 191°
2026-05-07 18:56 56.13611 -2.65470 29362 ft 394 kts 191°
2026-05-07 18:57 56.10899 -2.66345 29543 ft 399 kts 191°
2026-05-07 18:57 56.08145 -2.67236 29673 ft 406 kts 191°
2026-05-07 18:57 56.05345 -2.68139 29787 ft 412 kts 190°
2026-05-07 18:57 56.02499 -2.69054 29908 ft 418 kts 190°
2026-05-07 18:58 55.99667 -2.69963 30106 ft 420 kts 190°
2026-05-07 18:58 55.96787 -2.70891 30390 ft 420 kts 190°
2026-05-07 18:58 55.93918 -2.71814 30724 ft 419 kts 190°
2026-05-07 18:58 55.91050 -2.72731 31046 ft 417 kts 190°